• Join FlightAware (Why Join?)
  • Login
  • US Flag 
08:31PM EST


 

Airport Tracker/Info


-or-


 

Live Flight TrackerFlight Track Log ✈ UCA4801 ✈ 09-Apr-2014 ✈ KROA - KIAD

Flight Track Log - Related Links

Times and Time Zones

All times are in EDT time to prevent confusion due to time zone crossing. See the UCA4801 flight status page for this flight to view local times or setup timezone preferences in your user account.

Time Position Orientation Groundspeed Altitude Reporting Facility
EDT Latitude Longitude Course Direction KTS MPH feet Rate Location/Type
07:39PM 37.3769 -79.9356 51° Northeast 145 167 4,500  Level Washington Center
07:40PM 37.4078 -79.8903 49° Northeast 150 173 6,400 2,067 Climbing Washington Center
07:41PM 37.4389 -79.8372 54° Northeast 179 206 8,600 2,164 Climbing Washington Center
07:42PM 37.4722 -79.7839 52° Northeast 179 206 10,800 1,261 Climbing Washington Center
07:43PM 37.5094 -79.7311 48° Northeast 185 213 11,100 153 Climbing Washington Center
07:44PM 37.5639 -79.6686 42° Northeast 236 272 11,100  Level Washington Center
07:45PM 37.5966 -79.5541 51° Northeast  Level FlightAware Approximate
07:46PM 37.6700 -79.5458 42° Northeast 260 299 11,100  Level Washington Center
07:47PM 37.7242 -79.4881 40° Northeast 260 299 11,100  Level Washington Center
07:48PM 37.7764 -79.4225 45° Northeast 260 299 11,100  Level Washington Center
07:49PM 37.8283 -79.3594 44° Northeast 260 299 11,100  Level Washington Center
07:50PM 37.8825 -79.2936 44° Northeast 255 293 11,100  Level Washington Center
07:51PM 37.9344 -79.2303 44° Northeast 255 293 11,100 -34 Level Washington Center
07:53PM 38.0469 -79.0961 30° Northeast 250 288 11,000 -25 Descending Washington Center
07:55PM 38.1528 -78.9689 46° Northeast 250 288 11,000  Level Washington Center
07:56PM 38.2003 -78.9103 44° Northeast 250 288 11,000  Level Washington Center
07:57PM 38.2522 -78.8467 44° Northeast 250 288 11,000  Level Washington Center
07:58PM 38.3061 -78.7750 46° Northeast 250 288 11,000  Level Washington Center
07:59PM 38.3581 -78.7108 44° Northeast 250 288 11,000  Level Washington Center
08:00PM 38.4117 -78.6494 42° Northeast 250 288 11,000  Level Washington Center
08:01PM 38.4614 -78.5853 45° Northeast 250 288 11,000 -67 Level Washington Center
08:03PM 38.5644 -78.4567 North 250 288 10,800 -265 Descending Washington Center
08:04PM 38.6161 -78.3922 44° Northeast 250 288 10,200 -793 Descending Washington Center
08:05PM 38.6697 -78.3250 44° Northeast 250 288 9,200 -1,008 Descending Washington Center
08:06PM 38.7172 -78.2525 50° Northeast 255 293 8,200 -966 Descending Washington Center
08:07PM 38.7150 -78.1567 92° East 242 278 7,300 -843 Descending Washington Center
08:08PM 38.7108 -78.0606 93° East 248 285 6,500 -793 Descending Washington Center
08:09PM 38.7064 -77.9672 93° East 254 292 5,700 -750 Descending Washington Center
08:10PM 38.7042 -77.8742 92° East 254 292 5,000 -347 Descending Washington Center
08:11PM 38.6997 -77.7783 93° East 259 298 5,000 -99 Level Washington Center
08:12PM 38.7056 -77.6881 85° East 253 291 4,800 -443 Descending Washington Center
08:13PM 38.7333 -77.6000 68° East 258 297 4,100 -738 Descending Potomac TRACON
08:14PM 38.7667 -77.5167 63° Northeast 239 275 3,300 -550 Descending Potomac TRACON
08:15PM 38.8000 -77.4667 49° Northeast 206 237 3,000 -619 Descending Potomac TRACON
08:16PM 38.8500 -77.4667 360° North 160 184 2,000 -850 Descending Potomac TRACON
08:17PM 38.9000 -77.4667 360° North 129 148 1,300 -737 Descending Potomac TRACON
08:18PM 38.9167 -77.4667 360° North 108 124 600 -700 Descending Potomac TRACON